When you browse on this site, cookies collect data to enhance your experience and personalize the content and advertising you see.
Visit our Privacy Policy to learn more. By continuing to use the site, you agree to this use of cookies and data.
  • In Österreich
  • Länderverzeichnis
  • Für 7 Tage
  • Wassertemperatur
  • Satellitenkarten
  • Wetterkarte
  • News
  • Widgets
  • user-avatar
    Anmelden

    Stündliche Wetter La-Plata

    Heute, 17 Januar, Donnerstag

    Zeit Temperatur Niederschläge Wind Luftdruck Luftfeuchtigkeit
    00:00 +23°C° 0 mm 4 m/S 759 mmHg 60%
    01:00 +22°C° 0 mm 6 m/S 759 mmHg 61%
    02:00 +21°C° 0 mm 7 m/S 760 mmHg 62%
    03:00 +20°C° 0 mm 7 m/S 760 mmHg 64%
    04:00 +18°C° 0 mm 7 m/S 760 mmHg 66%
    05:00 +18°C° 0 mm 7 m/S 761 mmHg 68%
    06:00 +20°C° 0 mm 7 m/S 762 mmHg 67%
    07:00 +21°C° 0 mm 7 m/S 762 mmHg 65%
    08:00 +21°C° 0 mm 7 m/S 763 mmHg 63%
    09:00 +23°C° 0 mm 7 m/S 763 mmHg 57%
    10:00 +26°C° 0 mm 7 m/S 763 mmHg 50%
    11:00 +27°C° 0 mm 6 m/S 763 mmHg 43%
    12:00 +28°C° 0 mm 7 m/S 763 mmHg 42%
    13:00 +28°C° 0 mm 7 m/S 763 mmHg 42%
    14:00 +28°C° 0 mm 7 m/S 763 mmHg 42%
    15:00 +27°C° 0 mm 8 m/S 763 mmHg 46%
    16:00 +26°C° 0 mm 8 m/S 763 mmHg 49%
    17:00 +24°C° 0 mm 8 m/S 763 mmHg 53%
    18:00 +22°C° 0 mm 8 m/S 763 mmHg 56%
    19:00 +21°C° 0 mm 8 m/S 764 mmHg 60%
    20:00 +18°C° 0 mm 7 m/S 764 mmHg 63%
    21:00 +18°C° 0 mm 7 m/S 765 mmHg 65%
    22:00 +17°C° 0 mm 6 m/S 765 mmHg 67%
    23:00 +17°C° 0 mm 6 m/S 766 mmHg 69%

    Morgen, 18 Januar, Freitag

    Zeit Temperatur Niederschläge Wind Luftdruck Luftfeuchtigkeit
    00:00 +17°C° 0 mm 6 m/S 766 mmHg 69%
    01:00 +17°C° 0 mm 5 m/S 765 mmHg 69%
    02:00 +17°C° 0 mm 5 m/S 765 mmHg 70%
    03:00 +17°C° 0 mm 5 m/S 765 mmHg 69%
    04:00 +17°C° 0 mm 5 m/S 765 mmHg 68%
    05:00 +18°C° 0 mm 4 m/S 765 mmHg 68%
    06:00 +19°C° 0 mm 4 m/S 765 mmHg 66%
    07:00 +19°C° 0 mm 4 m/S 766 mmHg 64%
    08:00 +20°C° 0 mm 4 m/S 766 mmHg 62%
    09:00 +21°C° 0 mm 5 m/S 765 mmHg 59%
    10:00 +23°C° 0 mm 5 m/S 765 mmHg 56%
    11:00 +25°C° 0 mm 5 m/S 765 mmHg 53%
    12:00 +26°C° 0 mm 5 m/S 764 mmHg 51%
    13:00 +26°C° 0 mm 5 m/S 764 mmHg 50%
    14:00 +27°C° 0 mm 6 m/S 763 mmHg 48%
    15:00 +27°C° 0 mm 6 m/S 763 mmHg 49%
    16:00 +26°C° 0 mm 6 m/S 763 mmHg 49%
    17:00 +26°C° 0 mm 6 m/S 762 mmHg 49%
    18:00 +24°C° 0 mm 6 m/S 763 mmHg 57%
    19:00 +22°C° 0 mm 6 m/S 763 mmHg 64%
    20:00 +21°C° 0 mm 6 m/S 764 mmHg 71%
    21:00 +21°C° 0 mm 6 m/S 764 mmHg 74%
    22:00 +21°C° 0 mm 6 m/S 764 mmHg 76%
    23:00 +20°C° 0 mm 6 m/S 765 mmHg 79%

    übermorgen, 19 Januar, Samstag

    Zeit Temperatur Niederschläge Wind Luftdruck Luftfeuchtigkeit
    00:00 +20°C° 0.1 mm 5 m/S 764 mmHg 80%
    01:00 +20°C° 0.1 mm 5 m/S 764 mmHg 80%
    02:00 +20°C° 0.1 mm 5 m/S 764 mmHg 81%
    03:00 +20°C° 0 mm 4 m/S 764 mmHg 81%
    04:00 +19°C° 0 mm 4 m/S 764 mmHg 80%
    05:00 +19°C° 0 mm 4 m/S 764 mmHg 80%
    06:00 +20°C° 0 mm 4 m/S 764 mmHg 75%
    07:00 +22°C° 0 mm 4 m/S 765 mmHg 70%
    08:00 +23°C° 0 mm 5 m/S 765 mmHg 65%
    09:00 +25°C° 0 mm 5 m/S 765 mmHg 61%
    10:00 +25°C° 0 mm 5 m/S 765 mmHg 57%
    11:00 +26°C° 0 mm 5 m/S 765 mmHg 54%
    12:00 +27°C° 0 mm 5 m/S 764 mmHg 49%
    13:00 +28°C° 0 mm 5 m/S 764 mmHg 45%
    14:00 +28°C° 0 mm 6 m/S 763 mmHg 41%
    15:00 +28°C° 0 mm 6 m/S 763 mmHg 44%
    16:00 +27°C° 0 mm 6 m/S 762 mmHg 46%
    17:00 +27°C° 0 mm 6 m/S 762 mmHg 49%
    18:00 +26°C° 0 mm 6 m/S 762 mmHg 57%
    19:00 +23°C° 0 mm 6 m/S 762 mmHg 64%
    20:00 +22°C° 0 mm 6 m/S 763 mmHg 72%
    21:00 +22°C° 0 mm 6 m/S 763 mmHg 71%
    22:00 +23°C° 0 mm 7 m/S 763 mmHg 70%
    23:00 +23°C° 0 mm 7 m/S 763 mmHg 68%

    20 Januar, Sonntag

    Zeit Temperatur Niederschläge Wind Luftdruck Luftfeuchtigkeit
    00:00 +22°C° 0 mm 6 m/S 763 mmHg 70%
    01:00 +21°C° 0 mm 6 m/S 763 mmHg 72%
    02:00 +21°C° 0 mm 5 m/S 763 mmHg 74%
    03:00 +20°C° 0 mm 5 m/S 763 mmHg 75%
    04:00 +20°C° 0 mm 5 m/S 763 mmHg 75%
    05:00 +20°C° 0 mm 4 m/S 763 mmHg 76%
    06:00 +21°C° 0 mm 5 m/S 763 mmHg 72%
    07:00 +22°C° 0 mm 5 m/S 763 mmHg 67%
    08:00 +23°C° 0 mm 5 m/S 763 mmHg 63%
    09:00 +25°C° 0 mm 5 m/S 763 mmHg 58%
    10:00 +27°C° 0 mm 5 m/S 762 mmHg 53%
    11:00 +28°C° 0 mm 5 m/S 762 mmHg 47%
    12:00 +29°C° 0 mm 5 m/S 761 mmHg 45%
    13:00 +29°C° 0 mm 4 m/S 760 mmHg 42%
    14:00 +30°C° 0 mm 4 m/S 759 mmHg 40%
    15:00 +30°C° 0 mm 5 m/S 759 mmHg 42%
    16:00 +29°C° 0 mm 5 m/S 758 mmHg 44%
    17:00 +29°C° 0 mm 5 m/S 758 mmHg 46%
    18:00 +27°C° 0 mm 5 m/S 758 mmHg 54%
    19:00 +26°C° 0 mm 4 m/S 758 mmHg 62%
    20:00 +23°C° 0 mm 4 m/S 758 mmHg 70%
    21:00 +23°C° 0 mm 4 m/S 758 mmHg 72%
    22:00 +25°C° 0 mm 5 m/S 759 mmHg 73%
    23:00 +24°C° 0 mm 6 m/S 759 mmHg 75%

    21 Januar, Montag

    Zeit Temperatur Niederschläge Wind Luftdruck Luftfeuchtigkeit
    00:00 +23°C° 0 mm 6 m/S 759 mmHg 77%
    01:00 +23°C° 0 mm 6 m/S 758 mmHg 78%
    02:00 +22°C° 0 mm 5 m/S 758 mmHg 80%
    03:00 +22°C° 0 mm 5 m/S 758 mmHg 81%
    04:00 +22°C° 0 mm 4 m/S 758 mmHg 83%
    05:00 +21°C° 0 mm 3 m/S 757 mmHg 84%
    06:00 +23°C° 0 mm 4 m/S 758 mmHg 79%
    07:00 +25°C° 0 mm 4 m/S 758 mmHg 73%
    08:00 +26°C° 0 mm 4 m/S 758 mmHg 68%
    09:00 +28°C° 0 mm 3 m/S 758 mmHg 62%
    10:00 +29°C° 0 mm 3 m/S 757 mmHg 56%
    11:00 +31°C° 0 mm 2 m/S 757 mmHg 51%
    12:00 +31°C° 0 mm 3 m/S 756 mmHg 47%
    13:00 +33°C° 0 mm 3 m/S 756 mmHg 43%
    14:00 +34°C° 0 mm 3 m/S 755 mmHg 40%
    15:00 +34°C° 0 mm 4 m/S 755 mmHg 41%
    16:00 +33°C° 0 mm 4 m/S 755 mmHg 42%
    17:00 +33°C° 0 mm 4 m/S 754 mmHg 42%
    18:00 +30°C° 0 mm 4 m/S 754 mmHg 51%
    19:00 +28°C° 0 mm 4 m/S 755 mmHg 59%
    20:00 +27°C° 0 mm 4 m/S 755 mmHg 68%
    21:00 +27°C° 0 mm 4 m/S 755 mmHg 70%
    22:00 +27°C° 0 mm 4 m/S 755 mmHg 73%
    23:00 +26°C° 0 mm 4 m/S 756 mmHg 75%

    22 Januar, Dienstag

    Zeit Temperatur Niederschläge Wind Luftdruck Luftfeuchtigkeit
    00:00 +26°C° 0 mm 4 m/S 755 mmHg 75%
    01:00 +26°C° 0 mm 4 m/S 755 mmHg 74%
    02:00 +26°C° 0 mm 4 m/S 755 mmHg 73%
    03:00 +26°C° 0 mm 4 m/S 755 mmHg 74%
    04:00 +26°C° 0 mm 4 m/S 755 mmHg 74%
    05:00 +25°C° 0 mm 4 m/S 755 mmHg 75%
    06:00 +27°C° 0 mm 4 m/S 756 mmHg 70%
    07:00 +29°C° 0 mm 5 m/S 756 mmHg 65%
    08:00 +30°C° 0 mm 5 m/S 756 mmHg 60%
    09:00 +33°C° 0 mm 5 m/S 756 mmHg 53%
    10:00 +34°C° 0 mm 4 m/S 755 mmHg 47%
    11:00 +36°C° 0 mm 4 m/S 755 mmHg 40%
    12:00 +37°C° 0 mm 4 m/S 755 mmHg 37%
    13:00 +37°C° 0 mm 4 m/S 754 mmHg 35%
    14:00 +38°C° 0 mm 4 m/S 753 mmHg 32%
    15:00 +37°C° 0 mm 4 m/S 753 mmHg 33%
    16:00 +37°C° 0 mm 3 m/S 753 mmHg 33%
    17:00 +37°C° 0 mm 3 m/S 752 mmHg 34%
    18:00 +35°C° 0 mm 3 m/S 753 mmHg 39%
    19:00 +33°C° 0 mm 3 m/S 753 mmHg 45%
    20:00 +32°C° 0 mm 4 m/S 753 mmHg 50%
    21:00 +30°C° 0 mm 4 m/S 753 mmHg 53%
    22:00 +30°C° 0 mm 4 m/S 753 mmHg 56%
    23:00 +29°C° 0 mm 4 m/S 754 mmHg 59%
    Mehr zeigen